RH
38 37 36 36 35 36 37 35 35 37 38 40 41 43 44 43 43 44 44 44 45 45 44 42 41 41 41 41 40 39 38 38 38 39 38 37 35 34 35 36 38 39 39 39 37 36 38 41 41 41 40 39 38 38 39 43 47 52 58 61 59 59 59 57 55 54 53 52 50 51 54 53 52 51 50 51 52 47 45 48 47 43 42 41 38
41 38 37 38 37 37 39 39 38 39 40 40 42 44 46 45 45 46 47 47 47 48 48 47 46 43 42 42 43 42 41 41 41 41 42 41 40 41 43 42 38 34 34 34 32 31 32 34 35 36 35 35 36 38 40 41 42 48 57 62 62 60 58 58 57 55 54 53 51 52 54 54 54 53 51 49 49 46 45 46 45 45 46 46 42
44 44 41 39 39 39 41 43 43 42 41 41 42 43 44 45 46 48 48 48 49 50 51 50 51 50 47 45 46 46 46 45 45 45 45 44 43 44 44 43 42 40 40 40 39 38 37 36 37 38 38 38 39 40 41 42 42 45 49 51 54 54 54 54 53 54 55 52 49 51 54 54 54 55 54 52 51 50 46 42 42 43 45 46 44
47 52 50 43 41 42 42 44 45 44 44 42 41 42 44 46 47 48 50 51 51 51 52 53 54 54 53 50 49 48 49 49 49 50 51 50 48 47 45 41 41 43 44 46 47 47 46 45 46 46 46 45 46 46 44 43 44 44 44 45 47 49 51 53 53 54 54 52 49 50 52 51 51 54 57 56 55 53 49 42 39 37 37 39 40
49 55 53 47 47 48 45 45 47 46 46 46 45 43 44 46 47 48 51 53 53 54 55 58 57 56 56 55 52 52 52 50 49 50 53 54 53 53 51 48 46 45 44 44 45 45 45 46 47 48 49 49 51 52 50 49 48 46 47 48 48 50 53 55 55 55 56 55 50 47 48 50 51 52 54 54 55 56 53 45 37 34 34 34 37
51 54 55 54 54 56 51 46 46 46 48 53 52 48 46 46 47 48 50 52 56 58 58 59 59 59 59 57 54 54 55 54 53 53 53 54 55 55 54 54 54 53 52 52 51 49 50 51 51 51 51 52 52 52 53 54 52 50 49 47 47 50 53 54 52 53 56 56 52 49 50 51 52 54 56 57 56 57 57 51 40 35 34 34 38
52 53 58 59 56 58 57 50 45 46 51 54 54 52 52 52 49 49 51 53 56 58 59 61 64 64 64 64 59 57 58 58 58 58 56 56 57 56 56 59 60 59 61 62 60 59 60 59 55 53 55 58 56 53 53 54 54 52 50 47 46 49 53 54 50 50 52 53 53 54 54 52 50 51 56 59 59 58 59 55 46 40 38 37 38
52 50 56 61 57 55 56 53 47 46 48 49 49 52 55 55 55 54 54 54 54 55 58 65 67 65 67 72 69 63 62 62 61 61 60 60 59 57 56 59 62 62 63 65 64 63 66 65 59 55 56 58 57 55 52 52 53 51 49 49 49 50 54 56 54 51 50 50 49 49 51 51 48 46 49 53 58 60 60 58 52 47 45 43 39
54 50 54 57 54 51 51 52 49 45 44 42 41 45 48 52 57 59 57 56 55 53 55 63 69 68 68 74 74 69 66 67 67 66 64 62 61 59 57 58 61 62 63 66 65 62 64 66 64 62 57 52 52 53 52 50 51 50 49 50 52 54 54 54 55 53 49 46 46 46 47 48 47 46 46 49 54 60 62 60 56 54 55 53 48
59 56 54 52 50 50 51 52 50 49 47 43 41 42 42 45 49 54 57 59 57 55 54 58 67 72 69 68 71 72 69 68 70 70 68 66 63 62 61 59 60 63 63 65 64 61 61 62 64 67 63 55 51 51 51 51 52 51 49 48 49 50 49 48 48 48 45 44 46 47 48 47 46 46 47 50 54 59 62 61 60 61 62 60 59
66 62 56 53 52 52 52 52 54 56 54 49 47 47 45 44 43 45 51 55 56 55 54 55 63 70 66 60 65 72 71 69 69 69 69 68 66 65 62 60 62 63 62 63 61 58 57 59 64 68 68 62 55 52 52 54 55 54 53 50 49 50 50 48 47 46 45 46 48 49 49 48 47 46 49 54 58 59 61 62 62 65 67 67 68
72 69 62 57 57 58 59 59 61 63 60 55 53 52 49 48 47 45 49 53 54 54 53 53 60 67 65 60 61 66 66 68 70 70 70 69 68 66 63 61 62 62 63 64 60 54 54 59 66 73 73 66 59 58 58 57 58 57 56 56 56 57 56 55 54 53 52 52 51 51 51 51 51 51 50 54 59 61 62 64 65 69 72 73 75
76 76 70 65 67 69 70 70 70 68 67 64 62 60 58 56 54 52 52 53 54 55 54 53 57 63 65 63 62 62 62 64 66 69 71 70 67 65 64 64 64 62 64 67 63 59 65 70 71 75 77 71 62 58 58 57 56 56 56 56 57 60 61 60 60 59 56 54 53 54 54 53 54 55 54 55 58 60 62 63 65 68 71 73 75
77 78 76 73 74 75 77 78 76 74 76 74 72 72 71 69 68 66 63 60 58 57 56 56 57 61 63 63 63 65 66 66 63 61 65 69 68 65 64 65 66 64 65 67 65 66 74 79 76 74 75 72 65 58 54 52 51 51 52 53 54 56 59 60 61 61 58 56 55 56 57 56 54 54 56 57 58 60 61 62 63 65 66 68 70
75 75 76 77 78 79 81 81 79 80 82 79 78 78 76 76 77 76 75 72 68 65 63 62 62 63 62 61 62 64 66 67 65 61 60 64 67 68 66 64 66 67 66 67 67 66 70 75 74 72 72 70 66 60 54 51 50 49 50 51 51 53 55 57 59 60 60 59 57 56 59 59 56 54 55 56 57 59 61 62 62 64 64 64 65
78 76 78 80 81 82 83 83 82 83 82 80 81 79 77 79 79 78 77 77 74 74 73 71 69 68 66 65 65 65 65 67 67 66 64 63 64 67 69 68 67 68 66 65 64 62 64 68 69 69 71 69 65 61 56 51 50 48 47 49 50 51 53 55 58 61 63 61 58 56 59 60 58 56 55 56 56 57 58 59 60 62 64 63 63
77 76 78 80 81 81 81 81 80 79 79 78 78 77 76 77 77 75 76 76 76 77 78 78 78 74 71 71 70 70 70 71 70 67 66 67 66 65 68 70 70 70 67 63 60 56 57 64 67 69 71 66 61 60 58 53 50 48 46 46 47 50 53 56 59 62 63 61 58 58 61 63 63 60 57 57 58 60 62 64 64 64 64 61 61
77 77 77 78 78 76 75 76 77 77 77 76 75 76 78 78 77 77 77 77 78 81 81 80 82 81 79 77 76 74 75 76 74 71 68 68 66 65 66 66 68 69 66 65 65 61 60 64 66 69 71 67 61 60 61 59 57 53 49 47 47 51 56 59 62 63 62 61 60 60 62 65 66 64 60 57 59 64 69 71 71 72 72 64 58
74 74 73 72 72 72 73 76 78 77 77 76 76 78 79 79 81 83 83 81 81 85 87 84 85 88 87 84 81 80 81 81 79 77 74 70 66 65 64 63 63 65 66 66 66 66 67 69 69 68 69 68 67 67 66 65 64 61 58 56 56 56 57 60 61 60 59 59 60 61 64 67 70 70 69 65 61 63 67 70 74 81 87 83 74
69 68 68 68 68 70 73 76 77 78 78 78 77 77 78 81 86 90 92 90 87 88 90 90 91 94 93 89 86 85 85 85 84 82 80 77 73 69 67 65 63 62 63 64 64 64 68 70 70 69 68 68 70 71 70 69 69 68 66 66 65 62 60 59 57 54 54 55 57 59 63 67 70 74 78 77 72 68 69 72 75 81 86 90 90
68 69 71 71 71 72 74 76 78 78 78 78 77 77 78 82 87 90 93 95 95 95 95 94 93 94 94 91 90 89 89 88 87 85 83 82 81 77 72 70 68 64 62 62 62 64 67 67 69 73 75 75 73 71 72 73 73 73 72 70 69 67 65 63 60 57 57 56 55 57 61 65 68 70 77 83 80 76 75 77 78 79 80 84 87
67 70 73 74 75 75 75 74 75 75 75 76 78 80 82 85 88 91 92 93 93 93 94 94 93 93 92 91 91 91 90 89 88 88 87 86 86 83 79 76 74 71 69 67 66 68 71 70 70 74 79 82 80 76 75 76 76 78 79 76 72 68 68 68 67 66 64 62 61 62 66 70 70 70 78 87 86 81 81 83 84 83 82 83 84
64 66 69 71 72 73 72 71 72 73 77 80 82 82 83 84 87 89 90 91 90 88 88 90 92 92 92 94 94 93 92 91 90 90 90 89 89 87 85 84 82 80 79 78 75 75 76 76 76 76 77 79 80 81 79 77 75 78 83 83 78 73 71 72 71 71 72 71 70 70 73 77 76 74 80 85 83 81 83 87 90 90 88 87 87
61 61 64 65 65 66 68 69 70 72 74 76 78 79 78 78 79 81 81 83 87 87 86 86 89 91 93 95 96 95 93 92 91 91 91 91 90 89 88 87 86 86 86 85 83 83 84 82 82 81 79 77 79 81 81 77 75 75 79 82 81 79 78 77 77 79 80 80 77 75 76 78 78 78 79 78 76 77 81 87 90 91 91 91 90
55 56 58 60 62 63 65 67 68 69 70 70 72 73 74 73 73 73 74 76 80 83 84 84 85 86 88 91 93 93 92 91 90 89 90 91 90 91 91 90 89 90 90 89 88 87 87 86 85 85 84 83 82 81 80 79 80 80 81 84 85 86 86 86 85 85 84 83 82 81 80 81 80 79 78 77 75 75 81 88 92 91 91 91 91
49 50 52 56 59 60 62 63 64 67 68 69 69 69 70 70 69 69 69 70 71 73 75 76 77 78 79 83 86 88 89 89 89 88 89 89 90 91 91 90 90 90 90 90 89 87 87 88 89 88 87 86 86 85 83 83 85 86 87 89 90 90 90 89 88 87 86 85 85 84 83 82 82 81 79 77 76 75 79 86 92 93 91 91 90
49 48 48 49 51 52 54 56 58 59 61 63 64 64 65 66 65 65 66 65 65 66 68 68 70 71 73 76 79 81 82 84 85 86 86 86 87 90 91 89 88 88 87 87 86 86 87 89 90 89 88 88 87 85 85 86 87 87 88 90 91 90 88 87 87 88 89 89 87 85 84 83 82 81 78 75 73 71 72 78 87 91 89 86 86
54 53 52 51 51 51 50 49 50 52 54 55 57 57 59 60 59 58 59 58 58 61 64 62 62 64 67 70 74 75 76 78 79 79 79 77 78 80 83 82 83 83 82 82 85 88 91 92 91 90 90 88 85 81 80 81 82 84 84 85 85 85 84 83 83 86 88 88 86 85 83 82 80 78 76 74 72 69 68 72 81 88 88 84 81
54 55 55 55 55 55 53 49 47 48 49 49 50 51 53 55 56 55 55 55 55 56 57 57 57 58 60 64 65 65 66 68 68 67 67 67 66 68 69 71 73 74 74 77 83 87 89 90 90 90 88 85 83 81 80 82 83 83 82 82 80 79 78 77 77 77 78 80 80 80 79 79 77 76 74 73 72 70 70 71 76 82 83 81 79
51 53 53 53 53 54 53 49 47 46 46 46 46 47 47 48 51 52 53 54 55 56 56 56 57 57 58 59 60 60 59 60 60 59 60 60 60 62 63 65 68 71 74 77 81 83 85 87 88 88 85 83 83 84 83 84 85 84 83 83 81 80 79 78 76 75 74 73 73 72 71 71 71 71 72 73 72 71 69 69 72 75 75 74 75
48 49 48 48 50 50 49 44 41 40 41 41 41 42 42 42 43 45 47 49 50 51 51 52 52 52 52 52 53 53 53 54 54 54 55 56 58 63 67 69 72 76 79 80 80 80 82 84 84 85 84 82 81 81 79 78 78 77 76 76 75 74 74 73 72 71 71 70 69 67 66 64 64 63 65 68 71 72 72 72 76 78 79 78 78
46 45 44 43 44 44 44 41 37 37 38 36 35 36 35 33 34 35 36 37 40 41 43 44 44 45 44 44 44 44 44 45 45 45 47 49 54 62 68 71 72 74 75 76 75 76 76 76 77 79 81 80 78 77 76 74 73 72 71 71 69 66 65 64 63 62 62 62 62 62 62 62 61 59 58 59 61 64 66 69 71 74 75 77 78
37 36 36 36 35 36 37 37 36 37 38 36 36 35 31 27 28 30 30 29 29 30 32 33 35 36 37 37 38 38 38 38 39 40 43 48 53 59 64 66 66 66 66 65 66 67 67 68 69 71 73 74 75 75 74 74 73 72 72 72 70 68 66 65 63 61 60 58 57 56 56 56 56 56 56 56 55 54 55 56 58 62 66 70 72
28 26 28 30 30 30 31 32 33 34 34 33 33 32 29 27 29 31 31 29 26 23 22 24 26 27 28 29 30 32 32 33 33 35 38 43 48 52 56 58 60 61 61 61 61 62 62 62 64 65 66 68 70 70 71 71 71 71 71 71 71 70 69 67 64 62 61 60 58 56 56 55 53 53 53 53 53 52 52 52 53 56 59 62 64
25 23 23 24 24 24 25 27 27 26 26 27 27 25 25 25 26 26 26 26 26 23 20 20 20 20 21 22 22 23 25 27 28 29 32 35 39 42 45 48 50 50 52 53 56 58 60 62 64 65 66 67 68 69 69 68 67 68 68 68 68 68 67 66 64 64 64 65 63 62 61 61 59 58 57 56 55 54 53 54 55 56 56 57 59
22 22 22 21 22 23 22 22 22 19 18 21 23 22 21 21 22 22 21 23 24 23 21 21 20 17 18 19 18 18 19 21 21 23 26 31 35 37 39 40 41 41 43 44 45 47 49 51 52 53 55 57 58 59 61 61 62 63 63 62 62 62 62 62 61 60 62 63 63 61 61 61 61 60 59 58 58 57 56 55 55 54 54 54 56
21 22 22 21 21 22 22 23 23 20 18 19 21 21 20 20 20 20 19 20 22 21 21 22 21 20 21 22 19 16 17 19 20 22 25 28 30 32 33 34 35 35 36 36 37 37 37 39 40 40 41 42 42 43 45 47 48 49 49 50 52 52 52 54 54 53 53 54 54 54 53 53 53 52 51 51 52 53 53 53 52 51 51 51 52
22 22 21 19 17 18 21 24 25 23 22 21 21 21 20 19 20 20 20 21 22 23 22 22 23 23 25 26 23 20 20 22 23 24 26 28 28 30 32 33 34 35 35 35 35 34 34 36 37 37 37 37 37 37 37 38 38 38 38 38 40 40 40 40 40 41 42 44 44 44 44 43 43 43 42 43 44 45 46 46 46 45 45 45 45
23 23 21 19 18 19 22 24 24 23 22 21 20 20 20 20 22 24 23 22 23 24 25 26 26 26 27 29 31 30 30 31 30 29 28 28 28 29 31 31 32 33 34 34 35 35 35 36 35 33 33 33 33 33 33 33 34 34 33 32 32 32 32 32 32 33 34 36 36 37 37 35 35 35 34 35 36 37 38 38 38 38 37 38 39
21 23 23 22 21 20 20 21 21 21 21 21 21 22 22 24 27 28 26 24 25 27 30 32 34 34 33 34 37 38 37 38 39 39 38 36 35 34 34 34 33 32 31 31 32 34 35 35 35 35 35 35 35 36 37 36 37 37 36 35 34 33 33 33 33 33 35 36 36 36 36 35 33 33 33 32 32 32 33 34 34 35 35 35 35
21 22 22 22 22 20 20 21 22 22 23 23 22 22 23 25 27 27 26 28 32 34 35 37 39 40 40 40 40 39 39 39 42 44 44 43 42 43 43 42 41 40 37 36 35 35 35 35 36 37 39 38 37 38 37 36 36 36 36 35 35 34 34 36 37 37 38 38 38 37 37 37 36 36 36 36 35 34 35 35 34 34 34 33 33
20 23 23 23 23 22 22 23 23 22 22 22 22 22 22 24 25 25 25 28 33 36 38 39 39 39 40 41 40 40 42 43 44 45 47 47 48 49 47 46 46 46 45 43 43 41 38 36 36 36 37 36 34 33 31 30 29 31 31 31 31 31 33 36 39 39 40 40 40 39 39 39 39 38 39 38 38 37 37 36 35 34 34 34 34
23 26 25 24 23 23 23 23 23 23 23 23 23 23 22 22 23 23 22 23 26 29 33 37 37 34 34 36 35 36 40 43 44 45 47 47 49 50 49 48 49 50 48 47 47 46 43 41 40 39 38 37 37 35 33 31 31 31 30 31 33 35 37 38 38 38 38 39 38 39 39 40 40 40 40 39 38 38 37 37 36 35 35 35 35
27 27 25 24 24 24 24 25 26 26 25 23 22 22 22 22 22 21 20 22 25 26 29 34 38 37 34 32 32 34 37 39 41 44 46 47 48 51 52 53 54 54 51 49 49 49 47 44 42 41 40 40 42 42 40 37 36 36 36 37 39 41 42 41 40 39 39 39 39 39 39 39 40 41 41 39 37 37 36 36 36 36 36 36 36
28 26 25 24 24 25 25 26 26 26 25 24 23 23 23 22 22 21 21 23 26 27 27 30 34 34 31 28 29 33 37 39 41 45 47 49 51 54 57 59 60 59 56 53 52 51 48 45 43 42 42 42 44 46 45 42 40 40 42 44 44 44 44 43 42 42 41 39 38 40 41 41 41 41 40 38 37 37 36 36 36 36 37 38 37
28 26 25 25 25 26 26 26 25 25 25 24 24 23 22 21 21 21 22 23 24 25 25 25 26 27 26 25 28 34 39 43 46 50 55 61 65 66 66 65 62 60 58 56 53 50 48 46 44 44 44 43 44 47 47 44 42 45 48 49 47 45 44 43 42 41 40 40 41 43 45 46 45 44 42 40 40 40 40 40 39 40 40 41 41
27 27 26 27 27 26 25 26 25 25 24 24 23 23 22 21 21 22 24 25 24 24 24 23 23 25 26 28 31 35 38 42 46 53 62 69 72 71 69 66 63 61 61 59 56 53 51 49 47 46 44 42 43 48 50 49 49 51 53 52 49 47 46 45 43 41 40 43 46 48 48 47 47 47 45 45 45 45 45 44 44 44 44 43 42
28 28 27 27 27 26 26 26 25 24 23 23 23 24 23 22 22 24 26 27 25 25 24 24 25 29 34 37 38 40 41 43 46 52 59 63 65 66 70 71 70 68 66 62 59 57 54 51 49 46 43 40 41 46 50 51 50 50 50 51 51 50 47 45 43 41 40 42 45 46 46 45 46 45 44 44 44 44 43 42 42 42 41 41 40
28 28 27 27 27 26 25 25 25 25 24 23 24 25 25 25 26 26 27 27 28 27 28 29 34 39 44 47 48 47 47 48 51 56 61 63 63 64 66 66 64 62 60 57 55 54 52 49 46 43 39 37 37 38 42 45 47 46 47 50 51 48 43 41 41 40 41 43 44 43 44 46 46 45 44 43 42 42 41 40 40 40 40 41 40
29 27 27 27 26 25 25 26 26 26 25 24 24 24 25 26 27 28 29 30 32 33 36 39 43 45 47 48 48 47 47 49 52 55 58 59 58 57 55 53 52 53 53 51 50 50 48 47 46 44 41 38 37 37 41 46 48 47 49 52 53 50 48 49 49 49 51 51 50 49 51 52 52 51 50 49 48 48 47 46 45 45 44 43 42
28 27 27 27 26 26 26 26 26 25 25 24 24 25 26 28 29 30 31 32 34 37 41 44 45 45 44 43 43 42 44 47 49 48 49 50 51 51 51 50 50 51 51 50 50 50 49 48 47 46 43 41 41 44 48 52 54 56 59 62 61 59 57 57 56 57 60 61 60 60 61 61 60 60 59 56 54 53 50 48 46 45 43 41 40